Temp
22 22 21 22 22 22 22 22 22 22 22 22 21 21 21 21 21 21 21 22 22 22
22 21 21 21 21 22 22 22 22 22 21 22 21 20 21 21 21 21 22 22 22 22
22 21 22 21 22 22 22 22 22 21 22 21 21 20 20 21 21 21 22 22 22 22
21 21 21 21 21 22 22 21 22 22 21 22 21 20 20 21 21 21 21 22 22 22
21 20 20 21 22 22 22 22 22 22 21 21 21 20 20 21 20 20 22 22 22 22
20 21 21 22 22 22 22 22 22 22 22 21 21 21 21 21 20 21 22 21 22 22
21 22 22 22 22 22 22 22 22 22 22 21 21 21 22 21 21 21 21 22 21 21
23 22 22 22 22 22 22 22 22 22 22 21 21 21 22 22 22 21 21 21 21 21
24 23 23 23 23 23 23 22 22 22 21 21 21 21 21 21 22 22 23 21 20 21
23 23 23 23 23 22 22 22 22 21 21 21 21 21 22 22 22 22 22 22 21 20
23 23 23 23 22 22 22 22 22 21 21 21 21 21 21 21 21 21 20 20 20 20
23 23 22 22 22 22 21 21 21 21 20 20 20 20 20 20 20 20 20 19 19 19
24 23 23 22 22 22 21 21 21 20 20 20 20 20 19 19 19 19 18 18 18 18
21 21 21 21 21 21 20 20 19 19 19 18 18 19 19 19 19 19 18 18 18 17
Height
772 777 780 785 788 791 793 795 796 797 798 797 798 799 800 802 803 805 809 811 814 817
769 774 778 781 784 788 789 790 791 793 793 794 794 795 796 798 799 802 805 809 811 814
766 771 774 777 780 782 784 785 788 789 790 791 791 792 793 794 797 799 802 806 808 811
764 767 771 775 776 778 780 782 784 785 787 788 788 789 791 793 793 796 800 803 806 809
760 765 767 770 773 775 777 778 781 783 785 786 787 788 790 791 791 794 797 801 803 806
759 762 764 768 771 773 775 777 780 781 783 786 787 787 788 789 791 792 795 798 800 802
755 759 763 766 768 770 774 776 778 779 781 783 785 786 787 788 790 791 793 794 797 800
754 758 761 763 765 769 772 775 777 778 780 781 783 784 785 787 787 791 793 795 796 798
750 754 757 761 763 767 770 772 775 777 779 780 782 784 785 786 787 788 790 793 795 797
747 750 753 758 763 766 769 772 775 777 779 781 783 784 786 787 788 790 793 796 799 800
745 749 753 756 760 765 769 772 775 778 781 782 783 785 786 787 789 791 794 796 798 800
743 748 751 755 758 761 766 770 774 777 780 781 782 783 784 785 787 789 791 794 797 798
740 744 750 755 762 762 764 767 770 775 777 778 780 780 781 782 785 787 790 793 795 797
737 744 749 753 755 762 764 769 770 772 776 777 780 780 781 781 784 784 785 789 792 794
Wind_Speed
36 32 25 25 27 22 21 21 19 17 17 15 14 15 14 16 17 17 19 16 15 11
30 23 23 21 20 19 19 19 18 17 16 13 13 15 15 17 15 17 18 16 14 12
21 20 22 22 21 21 19 16 17 17 12 14 12 13 12 17 15 17 16 15 14 14
20 20 22 23 20 18 14 14 14 13 14 14 12 13 14 12 10 16 14 12 13 12
18 20 20 19 17 14 13 11 13 13 13 11 8 11 13 10 7 9 15 14 13 12
18 18 18 17 14 13 10 9 11 12 13 14 9 7 8 11 7 5 7 10 14 15
18 18 17 14 12 13 12 10 9 9 11 13 15 13 11 10 8 4 4 5 11 13
17 15 14 13 12 15 12 11 10 10 10 10 11 12 10 11 10 10 6 4 5 7
17 15 14 15 16 14 14 15 14 12 12 12 11 8 6 8 9 11 10 7 5 5
19 18 18 17 17 17 16 18 16 14 13 13 11 11 9 9 10 11 12 13 14 13
22 21 20 21 21 20 19 18 17 16 14 13 11 12 11 11 13 15 16 16 13 11
24 23 23 24 25 23 21 20 20 18 17 14 12 12 11 12 13 16 17 16 13 10
27 27 27 26 25 25 24 24 23 20 18 15 13 11 11 13 16 18 19 17 14 11
20 21 25 25 27 27 24 23 23 20 17 14 12 11 11 13 17 22 22 20 16 13
Wind_Direction
216 220 227 230 222 234 237 255 259 243 253 258 243 241 230 227 227 215 213 212 217 228
217 225 224 221 219 235 254 255 246 245 245 240 251 234 228 221 217 206 209 215 218 231
221 225 225 227 235 245 250 241 242 248 229 237 245 234 224 219 209 204 206 217 211 215
220 222 226 233 232 231 236 243 237 232 239 227 237 225 216 208 198 199 204 206 208 216
212 216 216 219 216 224 244 235 234 232 215 207 206 205 202 191 172 210 211 214 218 223
199 204 208 213 222 225 210 211 223 207 208 209 200 185 171 169 187 238 233 234 240 238
195 202 210 216 221 206 204 212 209 212 211 217 220 217 187 170 169 230 250 267 246 239
201 208 212 212 203 190 205 205 204 201 200 205 209 227 208 202 194 200 227 259 272 230
207 212 214 203 197 199 202 202 195 186 183 184 191 198 191 185 180 186 214 234 169 134
215 213 204 200 202 196 193 191 190 186 183 182 183 181 180 188 186 186 188 188 185 175
219 216 208 199 199 199 195 193 192 192 193 193 190 193 194 196 197 196 196 195 190 187
219 217 209 202 199 200 198 197 199 199 196 197 199 204 206 206 205 198 192 191 191 193
216 217 212 208 206 203 203 204 200 201 202 205 207 202 198 198 196 184 181 183 187 190
207 207 213 209 205 204 204 207 204 202 204 204 205 201 201 195 199 193 186 188 190 192